Tracking 19476 objects as of 17-Jan-2019
HD Live streaming from Space Station
objects crossing your sky now

GALAXY 1

Track GALAXY 1 now!
GALAXY 1 is classified as:


NORAD ID: 14158
Int'l Code: 1983-065A
Perigee: 35,810.4 km
Apogee: 35,866.0 km
Inclination: 15.2 °
Period: 1,438.4 minutes
Semi major axis: 42209 km
RCS: 4.5709 m2 (large)
Launch date: June 28, 1983
Source: United States (US)
Launch site: AIR FORCE EASTERN TEST RANGE (AFETR)
aabbcc
Your satellite tracking list
Your tracking list is empty




NASA's NSSDC Master Catalog

Two Line Element Set (TLE):
1 14158U 83065A   19015.58738885  .00000071  00000-0  00000+0 0  9996
2 14158  15.1813   4.3778 0006582 299.6541 249.0361  1.00113525103610
Source of the keplerian elements: AFSPC